Theta_e
317 323 323 324 323 323 323 324 324 323 322 321 321 320 319 318 318 318 319 318 317 316
302 303 304 305 307 308 310 314 320 324 324 322 322 321 321 318 317 317 317 317 317 316
297 299 300 300 300 302 303 304 306 308 312 320 323 323 322 321 321 319 318 317 316 317
294 295 296 296 297 297 298 299 299 301 304 307 311 320 322 322 321 319 319 319 318 317
291 292 292 292 293 295 294 295 296 297 299 300 303 306 310 316 319 320 319 319 318 317
288 289 289 289 290 290 291 292 293 294 294 296 298 300 303 306 310 314 318 319 319 319
286 287 285 285 285 286 287 288 289 291 292 294 294 295 298 301 305 305 307 312 316 319
284 282 282 282 282 283 284 285 286 287 288 290 291 292 294 295 296 297 298 301 305 308
278 278 278 279 280 280 281 282 283 283 285 286 287 290 291 292 293 293 293 295 298 301
276 276 276 276 277 277 278 279 280 282 283 283 284 286 288 288 289 290 291 292 293 295
274 274 274 274 274 275 276 276 277 278 279 280 281 284 286 287 288 288 289 290 292 292
273 273 273 273 273 274 274 275 276 277 278 278 280 283 284 284 284 284 285 288 290 291
272 272 271 272 273 274 274 274 276 276 277 278 279 281 283 284 284 283 285 287 288 288
271 271 272 272 272 272 272 273 273 274 275 276 277 279 281 282 282 282 283 284 285 287
Wind_Speed
10 2 1 2 3 3 4 5 6 8 10 11 11 10 10 8 8 10 10 14 12 10
12 12 10 10 8 6 7 6 7 6 7 9 10 11 10 8 9 9 11 11 11 11
11 11 10 10 11 11 9 9 9 9 9 8 8 10 10 10 10 11 10 9 12 12
11 11 10 10 10 10 10 11 10 9 9 9 8 8 9 11 11 12 12 12 13 15
10 10 10 11 11 10 11 10 11 10 10 10 9 9 10 10 11 11 12 14 13 16
10 10 11 11 12 12 12 11 11 11 11 11 10 10 10 11 11 12 14 15 17 17
10 11 11 12 12 12 12 12 12 11 11 11 11 11 11 11 11 13 13 14 15 16
12 13 12 12 13 12 12 12 12 13 13 11 10 8 11 12 13 14 14 15 15 15
12 13 13 12 12 12 12 13 13 13 14 13 9 16 18 15 14 15 15 16 15 15
12 13 13 13 13 13 14 14 14 14 14 13 13 20 21 21 14 15 16 17 15 16
10 12 13 13 14 13 12 13 14 14 15 14 12 21 22 21 15 15 17 17 17 18
13 14 14 14 14 13 12 13 13 13 15 15 14 22 25 22 14 15 17 16 17 17
13 13 13 13 13 12 12 14 12 15 15 17 16 22 24 22 12 16 14 15 16 18
12 13 12 13 13 12 14 14 14 15 15 17 16 16 25 26 14 13 14 14 15 13
Wind_Direction
39 29 334 283 265 252 233 241 240 213 221 222 229 232 227 226 227 233 234 238 236 236
37 38 36 36 39 29 22 5 344 300 246 232 235 232 228 228 229 214 238 235 235 239
32 30 30 29 26 17 10 2 354 350 346 321 249 244 235 235 234 225 227 228 226 224
24 23 25 25 15 6 356 353 350 343 335 327 329 295 256 244 245 236 241 238 233 237
17 17 18 11 2 355 348 343 336 333 329 325 325 324 311 303 279 255 252 251 241 242
12 12 10 357 349 344 337 331 327 326 322 318 318 315 310 304 299 291 283 276 265 258
1 5 356 344 342 336 331 325 323 319 311 308 311 311 307 302 305 304 299 296 287 277
1 347 346 343 337 333 328 325 321 318 312 314 315 312 316 308 303 297 291 285 280 277
357 340 343 340 335 329 329 326 323 316 311 317 315 315 306 301 298 294 291 288 286 285
351 334 338 339 337 336 331 327 319 314 313 314 313 310 308 303 294 289 285 285 288 287
336 341 343 340 338 329 327 324 313 311 309 309 306 308 307 302 294 287 285 282 281 279
348 344 341 338 334 328 319 314 315 312 312 311 307 311 313 310 297 288 286 285 281 277
344 338 332 328 325 318 318 316 317 313 309 307 305 309 310 312 302 295 293 288 287 278
335 330 326 324 325 323 321 319 317 314 313 309 304 304 310 313 309 305 302 298 298 292